CW8484 Weather Reports


time (UTC)temp
C
wind
direction
speed
KPH
gust
KPH
rain 1hr
cm
rain 24hr
cm
rain mn
cm
humidity
%
barometer
mb
20260510122404 10 174 3.2 17.7 0.00 0.03 0.03 89 1007.9
20260510121403 10 184 4.8 17.7 0.00 0.03 0.03 89 1008.1
20260510120404 10 181 12.9 17.7 0.00 0.03 0.03 89 1008.1
20260510115403 10 177 11.3 19.3 0.00 0.03 0.03 89 1008.0
20260510114403 10 174 11.3 24.1 0.00 0.03 0.03 89 1007.8
20260510113403 10 194 8.0 19.3 0.00 0.03 0.03 90 1008.0
20260510112403 10 180 4.8 20.9 0.00 0.03 0.03 90 1007.8
20260510111404 10 177 6.4 20.9 0.00 0.03 0.03 92 1007.7
20260510110403 10 186 3.2 19.3 0.00 0.03 0.03 92 1007.7
20260510105403 10 162 8.0 19.3 0.00 0.03 0.03 92 1007.6
20260510104403 9 176 6.4 17.7 0.00 0.03 0.03 92 1007.4
20260510103403 9 171 3.2 24.1 0.00 0.03 0.03 92 1007.1
20260510102404 9 176 6.4 16.1 0.00 0.03 0.03 92 1007.4
20260510101403 8 208 4.8 16.1 0.00 0.03 0.03 92 1007.0
20260510100403 8 173 8.0 16.1 0.00 0.03 0.03 92 1006.4
20260510095404 8 167 3.2 22.5 0.00 0.03 0.03 92 1006.2
20260510094424 8 167 8.0 16.1 0.00 0.03 0.03 92 1006.7
20260510093403 8 179 8.0 14.5 0.00 0.03 0.03 91 1006.6
20260510092424 8 188 6.4 14.5 0.00 0.03 0.03 90 1006.5
20260510091403 8 180 3.2 12.9 0.00 0.03 0.03 90 1006.4
20260510090403 8 166 3.2 9.7 0.00 0.03 0.03 90 1006.3
20260510085424 8 164 6.4 14.5 0.00 0.03 0.03 90 1006.2
20260510084403 9 176 3.2 14.5 0.00 0.03 0.03 90 1006.3
20260510083403 9 161 6.4 14.5 0.00 0.03 0.03 89 1006.1
20260510082403 9 153 3.2 12.9 0.00 0.03 0.03 89 1006.3
20260510081403 10 171 1.6 14.5 0.00 0.03 0.03 89 1006.5
20260510080403 10 173 3.2 19.3 0.00 0.03 0.03 89 1006.7
20260510075403 10 162 4.8 19.3 0.03 0.03 0.03 88 1006.7
20260510074403 10 160 6.4 25.7 0.03 0.03 0.03 88 1006.6
20260510073403 10 180 6.4 20.9 0.00 0.00 0.00 87 1006.5
20260510072403 10 168 8.0 29.0 0.00 0.00 0.00 86 1006.6
20260510071403 10 167 4.8 25.7 0.00 0.00 0.00 86 1006.3
20260510070403 10 152 9.7 27.4 0.00 0.00 0.00 85 1006.4
20260510065403 10 177 8.0 24.1 0.00 0.00 0.00 84 1006.6
20260510064403 11 171 8.0 29.0 0.00 0.00 0.00 83 1006.7
20260510063402 11 169 12.9 29.0 0.00 0.00 0.00 83 1006.5
20260510062403 11 183 8.0 27.4 0.00 0.00 0.00 83 1006.5
20260510061402 11 154 8.0 19.3 0.00 0.00 0.00 83 1006.3
20260510060403 11 165 1.6 35.4 0.00 0.00 0.00 82 1006.2
20260510055402 11 171 9.7 27.4 0.00 0.00 0.00 82 1006.5
20260510054424 11 167 11.3 22.5 0.00 0.00 0.00 82 1006.7
20260510053403 10 163 8.0 27.4 0.00 0.00 0.00 82 1006.7
20260510052403 10 184 4.8 22.5 0.00 0.00 0.00 83 1006.7
20260510051403 10 165 8.0 19.3 0.00 0.00 0.00 83 1006.7
20260510050424 10 196 4.8 16.1 0.00 0.00 0.00 84 1006.6
20260510045403 10 179 0.0 9.7 0.00 0.00 0.00 84 1006.5
20260510044403 9 190 3.2 19.3 0.00 0.00 0.00 84 1006.4
20260510043403 9 158 8.0 17.7 0.00 0.00 0.00 84 1006.4
20260510042403 9 188 6.4 16.1 0.00 0.00 0.00 84 1006.5
20260510041423 9 191 3.2 14.5 0.00 0.00 0.00 85 1006.0
20260510040404 8 171 1.6 11.3 0.00 0.00 0.00 85 1005.9
20260510035402 9 162 3.2 9.7 0.00 0.00 0.00 84 1005.9
20260510034403 9 162 0.0 11.3 0.00 0.00 0.00 83 1006.2
20260510033402 10 157 6.4 16.1 0.00 0.00 0.00 83 1006.4
20260510032403 10 159 3.2 11.3 0.00 0.00 0.00 83 1006.5
20260510030403 10 154 4.8 16.1 0.00 0.00 0.00 82 1006.4
20260510024404 10 147 4.8 19.3 0.00 0.00 0.00 83 1006.7
20260510023404 10 159 1.6 16.1 0.00 0.00 0.00 83 1006.7
20260510022404 10 153 4.8 12.9 0.00 0.00 0.00 83 1006.6
20260510021404 10 128 3.2 27.4 0.00 0.00 0.00 82 1006.5
20260510015404 10 122 3.2 9.7 0.00 0.00 0.00 81 1006.9
20260510014404 10 163 4.8 12.9 0.00 0.00 0.00 81 1006.9
20260510013404 10 159 1.6 11.3 0.00 0.00 0.00 81 1007.0
20260510012403 10 144 1.6 11.3 0.00 0.00 0.00 81 1006.9
20260510011404 10 148 4.8 12.9 0.00 0.00 0.00 81 1007.1
20260510010425 10 154 1.6 6.4 0.00 0.00 0.00 81 1007.1
20260510005403 10 147 1.6 9.7 0.00 0.00 0.00 81 1007.3
20260510004404 10 155 3.2 14.5 0.00 0.00 0.00 80 1007.4
20260510003403 10 154 3.2 12.9 0.00 0.00 0.00 80 1007.4
20260510002404 10 167 6.4 14.5 0.00 0.00 0.00 80 1007.3
20260510001404 10 150 1.6 8.0 0.00 0.00 0.00 80 1007.4
20260510000404 10 146 0.0 11.3 0.00 0.00 0.00 79 1007.3
20260509235425 10 174 3.2 16.1 0.00 0.00 0.00 79 1007.3
20260509234403 10 189 0.0 16.1 0.00 0.00 0.00 79 1007.3
20260509233404 10 155 4.8 12.9 0.00 0.00 0.00 79 1007.4
20260509232404 10 174 3.2 14.5 0.00 0.00 0.00 79 1007.2
20260509231403 10 163 1.6 12.9 0.00 0.00 0.00 79 1007.3
20260509230404 10 142 4.8 19.3 0.00 0.00 0.00 78 1007.2
20260509225403 10 152 1.6 16.1 0.00 0.00 0.00 77 1007.2
20260509224425 10 157 3.2 14.5 0.00 0.00 0.00 77 1007.2
20260509223425 10 131 4.8 19.3 0.00 0.00 0.00 77 1007.4
20260509222403 10 181 3.2 17.7 0.00 0.00 0.00 77 1007.5
20260509221404 10 154 8.0 16.1 0.00 0.00 0.00 77 1007.5
20260509220404 10 154 4.8 22.5 0.00 0.00 0.00 77 1007.6
20260509215403 10 161 6.4 16.1 0.00 0.00 0.00 77 1007.6
20260509214404 10 170 8.0 14.5 0.00 0.00 0.00 76 1007.7
20260509213403 10 159 3.2 17.7 0.00 0.00 0.00 75 1007.8
20260509212404 11 166 8.0 22.5 0.00 0.00 0.00 74 1007.8
20260509211403 11 174 6.4 22.5 0.00 0.00 0.00 74 1007.8
20260509210425 11 189 0.0 12.9 0.00 0.00 0.00 73 1007.9
20260509205404 11 160 3.2 25.7 0.00 0.00 0.00 74 1008.0
20260509204403 11 160 3.2 22.5 0.00 0.00 0.00 73 1008.1
20260509203404 11 151 6.4 29.0 0.00 0.00 0.00 70 1008.1
20260509202424 12 153 11.3 24.1 0.00 0.00 0.00 67 1008.1
20260509201403 12 181 6.4 24.1 0.00 0.00 0.00 67 1008.0
20260509200404 13 180 9.7 27.4 0.00 0.00 0.00 66 1008.0
20260509195403 13 147 6.4 24.1 0.00 0.00 0.00 65 1008.1
20260509194404 12 161 6.4 22.5 0.00 0.00 0.00 66 1008.1
20260509193404 12 117 6.4 24.1 0.00 0.00 0.00 66 1008.2
20260509192403 12 171 6.4 19.3 0.00 0.00 0.00 67 1008.1
20260509191404 12 125 3.2 20.9 0.00 0.00 0.00 66 1008.3
20260509190403 12 141 8.0 17.7 0.00 0.00 0.00 64 1008.5
20260509185404 12 135 3.2 27.4 0.00 0.00 0.00 61 1008.6
20260509184403 13 166 8.0 20.9 0.00 0.00 0.00 59 1008.7
20260509183404 13 195 4.8 25.7 0.00 0.00 0.00 59 1008.8
20260509182403 13 167 4.8 22.5 0.00 0.00 0.00 57 1008.8
20260509181403 13 199 4.8 22.5 0.00 0.00 0.00 55 1008.7
20260509180404 14 180 11.3 24.1 0.00 0.00 0.00 51 1008.7
20260509175404 14 178 9.7 25.7 0.00 0.00 0.00 49 1008.8
20260509174425 14 187 16.1 27.4 0.00 0.00 0.00 47 1008.9
20260509173424 15 189 8.0 24.1 0.00 0.00 0.00 46 1008.8
20260509172403 14 165 4.8 19.3 0.00 0.00 0.00 44 1008.9
20260509171425 14 182 8.0 20.9 0.00 0.00 0.00 42 1008.9
20260509170404 14 172 11.3 17.7 0.00 0.00 0.00 42 1009.0
20260509165404 14 174 9.7 17.7 0.00 0.00 0.00 44 1009.1
20260509164404 14 168 8.0 19.3 0.00 0.00 0.00 40 1009.1
20260509163403 14 175 9.7 20.9 0.00 0.00 0.00 39 1009.3
20260509162403 15 172 6.4 16.1 0.00 0.00 0.00 38 1009.4
20260509161403 15 180 6.4 16.1 0.00 0.00 0.00 38 1009.6
20260509160403 15 194 4.8 16.1 0.00 0.00 0.00 38 1009.8
20260509155403 15 174 6.4 14.5 0.00 0.00 0.00 38 1009.9
20260509154403 15 178 4.8 16.1 0.00 0.00 0.00 39 1010.1
20260509153403 14 158 8.0 16.1 0.00 0.00 0.00 39 1010.3
20260509152404 14 124 4.8 19.3 0.00 0.00 0.00 40 1010.5
20260509151403 14 162 4.8 14.5 0.00 0.00 0.00 40 1010.6
20260509150424 13 158 4.8 19.3 0.00 0.00 0.00 40 1010.7
20260509145403 13 148 1.6 25.7 0.00 0.00 0.00 41 1010.6
20260509144403 13 168 8.0 20.9 0.00 0.00 0.00 41 1010.7
20260509143404 13 221 3.2 20.9 0.00 0.00 0.00 41 1010.7
20260509142403 13 170 4.8 20.9 0.00 0.00 0.00 44 1010.9
20260509141403 13 145 6.4 17.7 0.00 0.00 0.00 42 1010.9
20260509140403 13 176 8.0 25.7 0.00 0.00 0.00 45 1010.9
20260509135403 12 149 6.4 24.1 0.00 0.00 0.00 47 1010.9
20260509134402 12 186 8.0 24.1 0.00 0.00 0.00 46 1010.9
20260509133403 12 175 8.0 17.7 0.00 0.00 0.00 46 1010.9
20260509132425 12 144 6.4 20.9 0.00 0.00 0.00 47 1011.0
20260509131403 12 168 1.6 17.7 0.00 0.00 0.00 49 1011.1
20260509130403 11 162 6.4 20.9 0.00 0.00 0.00 48 1011.3
20260509125403 11 154 3.2 17.7 0.00 0.00 0.00 49 1011.3
20260509124403 11 185 8.0 19.3 0.00 0.00 0.00 49 1011.5
20260509123423 10 187 6.4 17.7 0.00 0.00 0.00 51 1011.4